Location: Songkhla
(7.2000°N, 100.6000°E)
Time: 18:34:53
(UTC+07:00)

Daily predictions for brighter satellites

Satellite Brightness Start Highest point End
(mag) Time Altitude Azimuth Time Altitude Azimuth Time Altitude Azimuth
ATLAS 2AS CENTAUR RB 3.9 17:16:16 10° WSW 17:21:09 60° SSE 17:56:41 10° E
Meteor 2-14 Rocket 4.5 18:35:40 10° N 18:41:46 77° E 18:47:54 10° S
Sakura Rocket 4.2 18:41:51 10° SSW 18:44:58 22° SE 18:48:39 10° E
Cosmos 841 Rocket 4.4 18:42:11 10° NNE 18:46:30 27° ENE 18:50:49 10° SE
CZ-4 R/B 2.7 18:43:29 10° SE 18:46:44 22° ENE 18:49:56 10° NNE
NOSS 3-3 (A) 3.8 18:47:47 10° SSW 18:53:12 82° WNW 18:58:46 10° NNE
NOSS 3-3 (C) 3.8 18:47:52 10° SSW 18:53:18 83° WNW 18:58:53 10° NNE
USA 229 DEB 4.2 18:48:45 10° N 18:56:16 54° ENE 19:03:52 10° SE
USA 229 4.2 18:48:50 10° N 18:56:21 53° ENE 19:03:57 10° SE
Cosmos 468 Rocket 4.3 18:52:36 10° NNW 18:57:49 73° WSW 19:03:04 10° S
ARGOS 3.9 18:57:40 10° SE 19:02:27 33° ENE 19:07:11 10° NNE
ARIANE 44LP R/B 3.6 18:49:10 10° WSW 19:02:36 54° S 19:05:29 13° ESE
Skynet4D Del rocket 4.1 18:58:58 10° SW 19:03:53 37° SSE 19:09:03 10° E
SAR-Lupe-1 4.4 19:00:46 10° NNE 19:04:09 42° ESE 19:07:33 10° S
CZ-2D R/B 4.1 19:01:16 10° S 19:05:01 51° W 19:08:44 10° NNW
Meteor 2-15 Rocket 4.4 19:02:20 10° S 19:08:24 87° E 19:14:28 10° N
Cosmos 1503 Rocket 3.9 19:04:54 10° S 19:10:03 77° ESE 19:15:11 10° NNE
BREEZE M DEB (TANK) 3.4 19:03:26 10° NNW 19:11:01 40° NE 19:13:08 17° ESE
H-2A R/B 1.9 19:06:23 10° SSE 19:11:17 74° ENE 19:16:10 10° N
Okean O Rocket 3.6 19:09:01 10° SSW 19:12:56 31° W 19:16:51 10° NW
Okean 3 Rocket 3.5 19:09:12 10° N 19:13:34 90° SW 19:17:56 10° S
DMSP B5D2-2 4.0 19:09:34 10° NNE 19:14:50 77° ESE 19:20:07 10° S
NOSS 3-1 (A) 4.4 19:06:49 10° NNW 19:15:33 72° ENE 19:24:36 10° SSE
USA 142 4.3 19:06:08 10° WNW 19:15:42 74° SW 19:18:27 17° SE
HJ-1C 4.1 19:17:10 19° SE 19:18:57 33° ENE 19:21:57 10° NNE
Cosmos 540 Rocket 3.4 19:14:17 10° N 19:19:23 85° ENE 19:24:30 10° SSE
Lacrosse 5 rocket 3.2 19:16:08 10° WNW 19:20:08 32° WSW 19:24:14 10° S
Cosmos 1553 Rocket 3.9 19:14:23 10° S 19:20:25 67° E 19:26:29 10° N
ARIANE 5 R/B 2.1 19:18:36 10° WSW 19:20:27 30° S 19:21:00 26° SE
YAOGAN 1 2.6 19:16:26 10° SSE 19:20:41 60° ENE 19:24:56 10° N
ARIANE 5 R/B 3.2 19:19:46 10° SW 19:21:11 11° SSW 19:22:14 10° S
Feng Yun 1-1 Rocket 4.4 19:16:24 10° S 19:21:53 75° WSW 19:27:16 10° NNW
Meteosat 1 Rocket2 3.7 19:22:42 10° SSW 19:25:51 27° SSE 19:26:40 25° SE
Okean-O 2.8 19:22:26 13° SSE 19:26:16 52° ENE 19:30:33 10° N
Cosmos 1766 Rocket 4.4 19:24:35 10° NNW 19:28:54 52° W 19:33:14 10° S
Cosmos 1689 Rocket 3.7 19:26:55 10° N 19:29:28 34° WNW 19:32:03 10° SW
FALCON 9 R/B 4.3 19:23:38 10° NW 19:31:07 69° NE 19:50:11 23° ESE
Cosmos 1242 Rocket 2.9 19:29:56 25° SE 19:31:27 39° E 19:34:48 10° NNE
Star 48 S/N 10017-12 4.4 19:29:31 10° NW 19:31:48 46° NNE 19:33:09 28° E
SL-08 RB Rocket 3.9 19:28:50 18° SE 19:31:57 49° ENE 19:36:20 10° N
Cosmos 1417 Rocket 4.4 19:29:02 10° S 19:35:18 77° E 19:41:29 10° N
Cosmos 1603 3.8 19:31:47 10° NNW 19:37:22 78° WSW 19:42:47 11° S
Ariane 42L Rocket 4.1 19:33:37 10° WSW 19:39:59 75° S 19:48:00 23° E
Cosmos 2278 Rocket 2.2 19:36:40 10° S 19:42:10 54° ESE 19:47:39 10° NNE
BLOCK DM-SL 4.5 19:37:57 10° WSW 19:43:46 44° S 19:47:25 26° SE
Cosmos 921 Rocket 3.2 19:40:26 10° NNW 19:44:33 67° W 19:47:32 18° S
Nadezhda 2 Rocket 4.4 19:38:55 10° N 19:44:58 68° E 19:50:08 15° SSE
Cosmos 1814 Rocket 3.8 19:40:08 10° NNW 19:45:15 86° E 19:48:34 22° SSE
CSL-04 Debris 4.2 19:43:39 26° SSE 19:46:41 59° ENE 19:51:59 10° N
Ariane 3 Deb 3.8 19:24:51 10° W 19:47:57 78° S 19:50:21 35° E
Cosmos 1570 Rocket 4.0 19:44:07 10° NNW 19:49:19 83° WSW 19:52:52 21° S
ARIANE 5 R/B 1.9 19:45:14 10° W 19:52:45 56° S 19:53:00 54° SSE
CZ-2C R/B 2.9 19:50:05 10° W 19:53:49 32° NW 19:57:07 11° NNE
CSL-04 Rocket 3.5 19:54:02 36° SSE 19:56:08 68° ENE 20:01:23 10° N
ISS -0.6 19:55:09 10° W 19:57:17 16° NW 19:59:26 10° NNW
ARIANE 5 R/B 3.4 19:46:53 10° W 20:00:40 46° S 20:01:26 42° SSE
ARIANE 5 R/B 4.3 20:03:47 10° SW 20:06:50 30° S 20:06:50 30° S
ATLAS 5 CENTAUR R/B 4.5 20:08:52 10° NNE 20:10:41 14° NE 20:10:41 14° NE
Maqsat-H 3.8 19:59:59 10° W 20:13:46 30° SSW 20:15:25 27° S
Helios 1A Rocket 3.7 20:20:06 49° NNW 20:20:06 49° NNW 20:23:10 10° NNW
CZ-4 R/B 4.3 20:19:27 10° SW 20:21:29 13° W 20:23:28 10° WNW
CZ-3A R/B 4.1 20:19:24 10° W 20:19:42 13° W 20:19:42 13° W
Geosat 4.2 20:32:04 66° WNW 20:32:04 66° WNW 20:36:33 10° NNW
Sakura Rocket 4.1 20:34:12 10° WSW 20:37:53 50° WNW 20:37:53 50° WNW
Cosmos 1745 Rocket 4.3 20:45:00 10° N 20:50:10 61° NW 20:50:10 61° NW
ARIANE 5 R/B 3.9 12:56:20 10° W 21:05:45 57° SSW 21:05:48 57° SSW
